Hourly Data Report for October 22, 2016

CORAL HARBOUR A
NUNAVUT

64°11'36.000" N
83°21'34.000" W
62.20 m
2301002
71915
YZS

Download Data

Hourly Data (October 2016)
Hourly Data Report for October 22, 2016
TIME
LST
Temp Definition
°C
Dew Point Definition
°C
Rel Hum Definition
%
Precip. Amount Definition
mm

Wind Dir Definition
10's deg

Wind Spd Definition
km/h
Visibility Definition
km
Stn Press Definition
kPa
Hmdx Definition


Wind Chill Definition


Weather Definition


00:00 -7.8 -11.3 76   7 30 24.1 101.34   -17 Snow
01:00 -8.3 -11.6 77   6 25 24.1 101.41   -17 Snow
02:00 -10.5 -14.0 76   6 27 24.1 101.46   -20 Snow
03:00 -10.8 -14.1 77   6 28 24.1 101.51   -20 LegendNANA
04:00 -10.9 -14.2 77   6 28 24.1 101.56   -20 Clear
05:00 -10.5 -13.3 80   6 25 24.1 101.62   -19 LegendNANA
06:00 -8.0 -11.7 75   8 22 24.1 101.67   -16 LegendNANA
07:00 -7.3 -10.7 77   8 21 24.1 101.73   -15 Mainly Clear
08:00 -6.9 -10.3 77   8 21 24.1 101.76   -14 LegendNANA
09:00 -6.6 -10.3 75   9 23 24.1 101.80   -14 LegendNANA
10:00 -6.4 -10.3 74   8 25 24.1 101.87   -14 Cloudy
11:00 -6.0 -10.1 73   9 23 24.1 101.92   -13 LegendNANA
12:00 -5.4 -9.3 74   10 21 24.1 101.95   -12 LegendNANA
13:00 -5.0 -9.3 72   10 27 24.1 101.96   -13 Cloudy
14:00 -5.0 -9.5 71   9 30 24.1 101.99   -13 LegendNANA
15:00 -6.1 -10.0 74   8 21 24.1 102.01   -13 LegendNANA
16:00 -6.7 -10.1 77   8 23 24.1 102.03   -14 Mostly Cloudy
17:00 -5.6 -8.7 79   8 21 24.1 102.08   -12 LegendNANA
18:00 -5.6 -8.9 78   8 24 24.1 102.11   -13 LegendNANA
19:00 -5.5 -8.8 78   8 23 24.1 102.14   -13 Cloudy
20:00 -5.5 -8.6 79   9 26 24.1 102.18   -13 LegendNANA
21:00 -5.0 -8.1 79   10 28 24.1 102.20   -13 LegendNANA
22:00 -5.0 -7.8 81   10 23 24.1 102.23   -12 Cloudy
23:00 -4.8 -7.6 81   10 25 24.1 102.26   -12 LegendNANA

Notes on Data Quality.

Legend

  • E = Estimated
  • M = Missing
  • NA = Not Available*
  • [empty] = Indicates an unobserved value
Date modified: